This is the latest recevied weather packets stored in our database for station/object KD2SIG. If no packets are shown the sender has not sent any weather packets the latest 1 day(s).
| Time | Temp. | Humidity | Pressure | Rain* | Wind** | Luminosity | Snow |
|---|---|---|---|---|---|---|---|
| 1778013126 | 18.33° C | 74% | 1004.6 hPa | 0 mm | 2.68 m/s, 258° | 208 W/m² | - |
| 1778012822 | 17.78° C | 73% | 1005 hPa | 0 mm | 2.68 m/s, 284° | 245 W/m² | - |
| 1778012518 | 17.78° C | 74% | 1005 hPa | 0 mm | 1.79 m/s, 280° | 287 W/m² | - |
| 1778012214 | 17.78° C | 74% | 1004.6 hPa | 0 mm | 1.79 m/s, 291° | 267 W/m² | - |
| 1778011913 | 18.33° C | 73% | 1004.8 hPa | 0 mm | 3.58 m/s, 270° | 257 W/m² | - |
| 1778011611 | 18.33° C | 73% | 1004.7 hPa | 0 mm | 1.79 m/s, 272° | 293 W/m² | - |
| 1778011307 | 18.33° C | 73% | 1004.9 hPa | 0 mm | 3.13 m/s, 258° | 349 W/m² | - |
| 1778011003 | 18.33° C | 73% | 1005 hPa | 0 mm | 3.13 m/s, 261° | 342 W/m² | - |
| 1778010700 | 18.33° C | 73% | 1004.9 hPa | 0 mm | 3.58 m/s, 284° | 317 W/m² | - |
| 1778010398 | 18.33° C | 73% | 1004.8 hPa | 0 mm | 1.34 m/s, 243° | 245 W/m² | - |
| 1778010094 | 18.89° C | 73% | 1005.1 hPa | 0 mm | 2.24 m/s, 246° | 418 W/m² | - |
| 1778009790 | 18.89° C | 73% | 1005 hPa | 0 mm | 1.79 m/s, 264° | 438 W/m² | - |
| 1778009487 | 18.89° C | 72% | 1005.1 hPa | 0 mm | 4.02 m/s, 299° | 514 W/m² | - |
| 1778009186 | 18.89° C | 73% | 1004.9 hPa | 0 mm | 2.24 m/s, 264° | 367 W/m² | - |
| 1778008883 | 19.44° C | 72% | 1004.7 hPa | 0 mm | 2.24 m/s, 261° | 234 W/m² | - |
| 1778008582 | 18.89° C | 73% | 1004.6 hPa | 0 mm | 0.89 m/s, 250° | 358 W/m² | - |
| 1778008279 | 18.89° C | 72% | 1004.7 hPa | 0 mm | 2.68 m/s, 279° | 771 W/m² | - |
| 1778007975 | 18.33° C | 74% | 1004.6 hPa | 0 mm | 1.79 m/s, 301° | 382 W/m² | - |
| 1778007670 | 17.78° C | 74% | 1004.7 hPa | 0 mm | 2.24 m/s, 249° | 624 W/m² | - |
| 1778007367 | 17.78° C | 75% | 1004.9 hPa | 0 mm | 3.58 m/s, 311° | 384 W/m² | - |
| 1778007063 | 17.78° C | 76% | 1004.5 hPa | 0 mm | 2.24 m/s, 266° | 281 W/m² | - |
| 1778006760 | 17.78° C | 76% | 1004.7 hPa | 0 mm | 2.68 m/s, 332° | 412 W/m² | - |
| 1778006457 | 17.78° C | 76% | 1004.4 hPa | 0 mm | 4.02 m/s, 270° | 374 W/m² | - |
| 1778006153 | 17.78° C | 78% | 1004.4 hPa | 0 mm | 2.24 m/s, 331° | 692 W/m² | - |
| 1778005851 | 17.78° C | 78% | 1004.5 hPa | 0 mm | 3.13 m/s, 272° | 231 W/m² | - |
* Rain latest hour (hover to see other rain measurements)
** Current wind speed in m/s (hover to see current wind gust speed)